WBKKWBGR

Guest
Details From WBKK - Kota Kinabalu Intl
To WBGR - Miri
Flight Number -
Tags generated
Created
Modified
Stats Distance 157 nm / 291 km
Max Altitude 20,400 ft / 6,218 m
Waypoints 3
Social Downloads 4
Likes 0
Share VATSIM

Download

Looking for another format? Having issues loading an existing format? Contact us
Advertisement - Login to hide

Notes

Basic altitude profile: - Ascent Rate: 2500ft/min - Ascent Speed: 250kts - Cruise Altitude: 35000ft - Cruise Speed: 420kts - Descent Rate: 1500ft/min - Descent Speed: 250kts Options: - Use NATs: yes - Use PACOTS: yes - Use low airways: yes - Use high airways: yes

Route

WBKK VLB WBGR

ID Type Via Altitude Latitude Longitude Leg Dist Tot Dist Heading (true) Name
O WBKK APT - 0 ft / 0 m 5.93721˚ 116.05118˚ - 0 nm - Kota Kinabalu Intl
VLB VOR - 20,400 ft / 6,218 m 5.29000˚ 115.25172˚ 61 nm 61 nm 231° / 231° LABUAN VOR-DME
O WBGR APT - 0 ft / 0 m 4.32207˚ 113.98681˚ 95 nm 157 nm 233° / 232° Miri

Altitude Profile

Advertisement - Login to hide

WBKK

Details ICAO WBKK (BKI)
Name Kota Kinabalu Intl
Region Brunei and Malaysia
Timezone Asia/Kuching (UTC+8.0)
Stats Elevation 10 ft / 3 m (AMSL)
Location 5.937208° 116.051181°
Runways 1
Magnetic Variation 0.409° W

METAR

WBKK 171930Z VRB02KT 9999 FEW013 SCT040 BKN130 23/22 Q1008 NOSIG

Decode

TAF

TAF WBKK 171700Z 1718/1818 13005KT 9999 FEW013 TEMPO 1718/1722 4000 RA FEW013 FEW016CB SCT040 BECMG 1722/1800 7000 -RA PROB30 TEMPO 1808/1812 3000 TSRA FEW012 FEW016CB SCT035

Decode

Departure Runways

ID Width Length Bearing (true) Bearing (mag) Surface Threshold Offset Overrun Length
02 150 ft / 46 m 9,836 ft / 2,998 m 22.73° 23.14° Asphalt 1,600 ft / 488 m 0 ft / 0 m
20 150 ft / 46 m 9,836 ft / 2,998 m 202.73° 203.14° Asphalt 200 ft / 61 m 0 ft / 0 m

WBGR

Details ICAO WBGR (MYY)
Name Miri
Region Brunei and Malaysia
Timezone Asia/Kuching (UTC+8.0)
Stats Elevation 59 ft / 18 m (AMSL)
Location 4.322068° 113.986806°
Runways 1
Magnetic Variation 0.084° W

METAR

WBGR 172000Z 21003KT 5000 -RA FEW002 SCT016 OVC140 23/23 Q1009 RERA

Decode

TAF

Not found

Destination Runways

ID Width Length Bearing (true) Bearing (mag) Surface Threshold Offset Overrun Length
02 197 ft / 60 m 9,040 ft / 2,755 m 24.85° 24.93° Asphalt 0 ft / 0 m 200 ft / 61 m
20 197 ft / 60 m 9,040 ft / 2,755 m 204.85° 204.93° Asphalt 0 ft / 0 m 200 ft / 61 m

Approach Navaids

Runway Type Ident Frequency Range Bearing (true) Bearing (mag) Slope Elevation
02 Localiser IMR 110.10 MHz 18 nm / 33 km 25.02° 25.10° - 59 ft / 18 m (AMSL)
02 Glidescope IMR 110.10 MHz 10 nm / 19 km 24.85° 24.93° 3.00° 56 ft / 17 m (AMSL)
02 DME IMR 110.10 MHz 18 nm / 33 km - - - 59 ft / 18 m (AMSL)

Popular Alternatives